Regional Weather Roundup
Issued by NWS

Home | Current Version | Previous Version | Graphics & Text | Print | Product List | Glossary On
Versions: 1 2 3 4 5 6 7 8 9 10 11 12 13 14 15 16 17 18 19 20 21 22 23 24 25 26 27 28 29 30 31 32 33 34 35 36 37 38 39 40 41 42 43 44 45 46 47 48 49 50
289
ASUS43 KLOT 191203
RWRIL

ILLINOIS REGIONAL WEATHER ROUNDUP
NATIONAL WEATHER SERVICE CHICAGO/ROMEOVILLE IL
600 AM CST THU JAN 19 2017

NOTE: "FAIR" INDICATES FEW OR NO CLOUDS BELOW 12,000 FEET WITH NO
SIGNIFICANT WEATHER AND/OR OBSTRUCTIONS TO VISIBILITY.

* THESE STATIONS ARE NOT UNDER NWS QUALITY CONTROL. THEY ALSO MAY NOT
  REPORT WEATHER SUCH AS PRECIPITATION OR FOG.

ILZ001-002-007-009-015-016-024-191300-
NORTHWEST ILLINOIS

CITY           SKY/WX    TMP DP  RH WIND       PRES   REMARKS
MOLINE         CLEAR     26  24  92 E6        29.95F FOG     WCI  19
6HR MIN TEMP:  26; 6HR MAX TEMP:  30;

STERLING*      PTCLDY    31  30  96 E3        29.98F FOG
SAVANNA*       FOG       29  29  99 CALM      29.97F VSB 1/2
$$

ILZ003-004-008-010-011-017-018-191300-
NORTH CENTRAL ILLINOIS

CITY           SKY/WX    TMP DP  RH WIND       PRES   REMARKS
ROCKFORD       PTCLDY    31  29  92 S6        30.00S FOG     WCI  25
6HR MIN TEMP:  28; 6HR MAX TEMP:  32;

FREEPORT*      PTCLDY    31  30  97 S6        29.98S FOG     WCI  25
ROCHELLE*      PTCLDY    32  32 100 S9        30.00S FOG     WCI  24
DE KALB*       MIX PCPN  32  31  99 S9        30.00S VSB 1/4 WCI  24
$$

ILZ005-006-012>014-019>023-191300-
NORTHEAST ILLINOIS

CITY           SKY/WX    TMP DP  RH WIND       PRES   REMARKS
CHICAGO-OHARE  CLOUDY    33  33 100 S3        30.00F FOG
6HR MIN TEMP:  30; 6HR MAX TEMP:  34;

CHICAGO-MIDWAY CLOUDY    33  31  92 S7        30.02F FOG     WCI  27
6HR MIN TEMP:  32; 6HR MAX TEMP:  33;

AURORA         CLOUDY    33  31  92 S8        30.01S FOG     WCI  26
6HR MIN TEMP:  30; 6HR MAX TEMP:  33;

LANSING*       CLOUDY    33  33 100 S7        30.04S FOG     WCI  27
JOLIET*        CLOUDY    35  34  99 SE3       30.03F FOG
WAUKEGAN       FOG       33  32  96 S6        29.99S VSB 3/4 WCI  28
6HR MIN TEMP:  33; 6HR MAX TEMP:  34;

DUPAGE AIRPORT CLOUDY    32  30  92 S7        30.00S FOG     WCI  26
6HR MIN TEMP:  28; 6HR MAX TEMP:  33;

WHEELING       CLOUDY    34  33  96 S7        30.02S FOG     WCI  28
6HR MIN TEMP:  27; 6HR MAX TEMP:  34;

MORRIS*        CLOUDY    33  32  96 SE3       30.02R FOG
ROMEOVILLE*    CLOUDY    33  33 100 S8        30.02S FOG     WCI  26
NORTHERLY ISL    N/A     35  32  88 S7          N/A  WCI  29
$$

LMZ740>746-191300-
SOUTHERN LAKE MICHIGAN

STATION/POSITION SKY/WX   TEMP    WIND        PRES    VSBY  WAVE
                          AIR SEA DIR/SP/G                  HT/PER
                          (F)     (DEG/KT/KT) (MB)    (MI)  (FT/S)
HARRISON CRIB              36     180/ 14/ 15   N/A
BURNHAM HARBOR             35     170/  5/ 11   N/A
CALUMET HARBOR             34     170/  8/ 11 1016.3F
BURNS HARBOR               36     170/  9/ 16 1017.6S
$$

ILZ025>027-034>036-040-047-049-050-058-095>099-191300-
WEST-CENTRAL ILLINOIS

CITY           SKY/WX    TMP DP  RH WIND       PRES   REMARKS
QUINCY         CLOUDY    39  37  92 SE9       29.90F WCI  33
GALESBURG*     CLOUDY    33  33 100 E6        29.96S FOG     WCI  28
MACOMB*        CLOUDY    33  33 100 E6        29.96F FOG     WCI  28
JACKSONVILLE*  CLOUDY    38  37  96 E5        29.95F FOG     WCI  35
PITTSFIELD*    CLOUDY    40  38  94 E3        29.94F
$$

ILZ028>032-037-038-041>044-048-051>054-059>061-191300-
CENTRAL ILLINOIS

CITY           SKY/WX    TMP DP  RH WIND       PRES   REMARKS
BLOOMINGTON    CLOUDY    34  34 100 S8        30.00F FOG     WCI  27
DECATUR        CLOUDY    37  37 100 E8        29.99F FOG     WCI  31
PEORIA         CLOUDY    36  35  96 E3        29.98F FOG
6HR MIN TEMP:  32; 6HR MAX TEMP:  37; 6HR PCP: TRACE;

LACON*         PTCLDY    33  33 100 SE3       29.99F FOG
LINCOLN*       CLOUDY    37  37  99 SE5       29.98F FOG     WCI  34
SPRINGFIELD    CLOUDY    41  37  86 SE7       29.98F
6HR MIN TEMP:  37; 6HR MAX TEMP:  41; 6HR PCP: TRACE;

TAYLORVILLE    CLOUDY    39  37  92 E7        29.98F WCI  34
6HR MIN TEMP:  36; 6HR MAX TEMP:  39;

$$

ILZ033-039-045-046-055>057-062-063-191300-
EAST-CENTRAL ILLINOIS

CITY           SKY/WX    TMP DP  RH WIND       PRES   REMARKS
CHAMPAIGN      CLOUDY    35  34  96 E8        30.01F FOG     WCI  29
MATTOON        CLOUDY    37  36  96 SE9       29.99F FOG     WCI  30
PARIS*         CLOUDY    36  36  99 SE5       30.04F FOG     WCI  32
$$

ILZ079-100>102-191300-
SOUTHWEST ILLINOIS

CITY           SKY/WX    TMP DP  RH WIND       PRES   REMARKS
ALTON          CLOUDY    40  38  93 E7        29.95F
BELLEVILLE     CLOUDY    42  42  99 E6        29.94F
CAHOKIA*       CLOUDY    43  40  89 E5        29.95S
SPARTA*        CLOUDY    42  40  91 E8        29.96S
$$

ILZ064>066-069>071-074>076-080>082-084>086-088>090-092>094-191300-
SOUTH-CENTRAL ILLINOIS

CITY           SKY/WX    TMP DP  RH WIND       PRES   REMARKS
CARBONDALE     CLOUDY    43  42  97 E9        29.96F
6HR MIN TEMP:  41; 6HR MAX TEMP:  43; 6HR PCP: TRACE;

CAIRO*         CLOUDY    44  44  99 E8        29.95S FOG
EFFINGHAM*     CLOUDY    39  39 100 E8        30.01F FOG     WCI  33
MARION         CLOUDY    45  45 100 CALM      29.98R
MT. VERNON     CLOUDY    42  39  89 E6        29.99F
CENTRALIA*     CLOUDY    42  40  92 E8        29.97F
SALEM*         CLOUDY    42  38  85 SE7       29.97F
$$

ILZ067-068-072-073-078-083-087-091-191300-
SOUTHEAST ILLINOIS

CITY           SKY/WX    TMP DP  RH WIND       PRES   REMARKS
LAWRENCEVILLE  CLOUDY    39  38  96 E8        30.03F WCI  33
FLORA*         CLOUDY    41  38  89 E5        30.01F
FAIRFIELD*     CLOUDY    42  39  89 E3        29.99F
HARRISBURG*    CLOUDY    43  40  91 E7        29.99S
ROBINSON*      CLOUDY    37  35  94 E5        30.05F WCI  33
CARMI*         CLOUDY    42  39  91 E8        30.00S
$$

ABBREVIATIONS USED IN REMARKS
   TC - TEMPERATURE IN CELSIUS
  WCI - WIND CHILL INDEX
   HX - HEAT INDEX
  VSB - VISIBILITY
$$





USA.gov is the U.S. government's official web portal to all federal, state and local government web resources and services.